Weather History for Alliance, NE

Change the Weather History Date:

Saturday, January 19, 2013

  Actual Average Record
Temperature  
Mean Temperature 36 °F 24 °F  
Max Temperature 53 °F 38 °F 64 °F (1997)
Min Temperature 19 °F 11 °F -31 °F (1963)
Degree Days  
Heating Degree Days 29 41  
Month to date heating degree days 813 782  
Since 1 July heating degree days 3617 3864  
Moisture  
Dew Point 15 °F    
Average Humidity 55    
Maximum Humidity 91    
Minimum Humidity 18    
Precipitation  
Precipitation 0.00 in 0.00 in 0.25 in (1988)
Month to date precipitation T 0.10  
Year to date precipitation T 0.10  
Sea Level Pressure  
Sea Level Pressure 30.18 in    
Wind  
Wind Speed 11 mph (WNW)    
Max Wind Speed 24 mph    
Max Gust Speed 31 mph    
Visibility 10 miles    
Events      
T = Trace of Precipitation, MM = Missing Value Source: NWS Daily Summary

Daily Weather History Graph

Daily Weather History Graph

Search for Another Location

Airport:

Trip Planner

Search our weather history database for the weather conditions in past years. The results will help you decide how hot, cold, wet, or windy it might be!

Date:

Astronomy

Jan. 19, 2013 Rise Set
Actual Time 7:14 AM MST 4:49 PM MST
Civil Twilight 6:44 AM MST 5:20 PM MST
Nautical Twilight 6:09 AM MST 5:54 PM MST
Astronomical Twilight 5:36 AM MST 6:28 PM MST
Moon 11:18 AM MST (1/19) 12:49 AM MST (1/19)
Length of Visible Light 10h 36m
Length of Day
9h 35m
First Quarter, 58% of the Moon is Illuminated
Jan 19
First Quarter
Jan 26
Full
Feb 3
Last Quarter
Feb 10
New
Feb 17
First Quarter

Hourly Weather History & Observations

Time (MST) Temp. Windchill Dew Point Humidity Pressure Visibility Wind Dir Wind Speed Gust Speed Precip Events Conditions
12:53 AM 34.0 °F 23.8 °F 15.1 °F 46% 29.96 in 10.0 mi WNW 16.1 mph - N/A   Clear
1:53 AM 30.0 °F 20.5 °F 14.0 °F 51% 30.00 in 10.0 mi West 11.5 mph - N/A   Clear
2:53 AM 28.9 °F 18.2 °F 14.0 °F 54% 30.03 in 10.0 mi West 13.8 mph - N/A   Clear
3:53 AM 25.0 °F 14.2 °F 12.9 °F 60% 30.06 in 10.0 mi West 11.5 mph - N/A   Clear
4:53 AM 23.0 °F 11.7 °F 12.9 °F 65% 30.13 in 10.0 mi West 11.5 mph - N/A   Clear
5:53 AM 25.0 °F 13.1 °F 12.9 °F 60% 30.15 in 10.0 mi West 13.8 mph - N/A   Clear
6:53 AM 23.0 °F 12.4 °F 12.9 °F 65% 30.18 in 10.0 mi WNW 10.4 mph - N/A   Clear
7:53 AM 24.1 °F 13.7 °F 12.9 °F 62% 30.22 in 10.0 mi West 10.4 mph - N/A   Clear
8:53 AM 35.1 °F 26.4 °F 15.1 °F 44% 30.22 in 10.0 mi WNW 12.7 mph - N/A   Clear
9:53 AM 43.0 °F 34.8 °F 14.0 °F 31% 30.20 in 10.0 mi WNW 18.4 mph - N/A   Clear
10:53 AM 48.9 °F - 14.0 °F 25% 30.17 in 10.0 mi WNW 13.8 mph - N/A   Clear
11:53 AM 51.1 °F - 12.0 °F 21% 30.15 in 10.0 mi NW 16.1 mph 23.0 mph N/A   Clear
12:53 PM 53.1 °F - 10.9 °F 19% 30.13 in 10.0 mi NNW 19.6 mph 26.5 mph N/A   Clear
1:53 PM 53.1 °F - 10.9 °F 19% 30.14 in 10.0 mi NW 20.7 mph 27.6 mph N/A   Clear
2:53 PM 51.1 °F - 12.0 °F 21% 30.17 in 10.0 mi North 18.4 mph - N/A   Clear
3:53 PM 46.9 °F - 14.0 °F 27% 30.20 in 10.0 mi North - - N/A   Clear
4:53 PM 37.9 °F 30.0 °F 15.1 °F 39% 30.25 in 10.0 mi North 12.7 mph - N/A   Clear
5:53 PM 28.9 °F 21.1 °F 21.9 °F 75% 30.29 in 10.0 mi East 8.1 mph - N/A   Clear
6:53 PM 28.9 °F 21.1 °F 23.0 °F 78% 30.30 in 10.0 mi NE 8.1 mph - N/A   Clear
7:53 PM 24.1 °F - 21.0 °F 88% 30.32 in 10.0 mi Calm Calm - N/A   Clear
8:53 PM 23.0 °F - 19.0 °F 85% 30.30 in 10.0 mi Calm Calm - N/A   Clear
9:53 PM 21.9 °F - 18.0 °F 85% 30.27 in 10.0 mi Calm Calm - N/A   Clear
10:53 PM 19.9 °F - 17.1 °F 89% 30.24 in 10.0 mi Calm Calm - N/A   Clear
11:53 PM 21.0 °F 14.6 °F 18.0 °F 88% 30.20 in 10.0 mi South 4.6 mph - N/A   Clear